Regional Weather Roundup
Issued by NWS

Home | Current Version | Previous Version | Text Only | Print | Product List | Glossary Off
Versions: 1 2 3 4 5 6 7 8 9 10 11 12 13 14 15 16 17 18 19 20 21 22 23 24 25 26 27 28 29 30 31 32 33 34 35 36 37 38 39 40 41 42 43 44 45 46 47 48 49 50

000
ASUS45 KPSR 251000
RWRAZ

PRELIMINARY ARIZONA REGIONAL HOURLY WEATHER ROUNDUP
NATIONAL WEATHER SERVICE PHOENIX AZ
300 AM MST FRI JUL 25 2014

NOTE: FAIR INDICATES FEW OR NO CLOUDS BELOW 12,000 FEET WITH NO
SIGNIFICANT WEATHER AND/OR OBSTRUCTIONS TO VISIBILITY.

AZZ001>003-036-251100-
NORTHWEST ARIZONA

CITY           SKY/WX    TMP DP  RH WIND       PRES   REMARKS
KINGMAN        PTCLDY    81  52  36 SE7       29.98F
$$

AZZ004>008-015-016-018-251100-
NORTH CENTRAL ARIZONA

CITY           SKY/WX    TMP DP  RH WIND       PRES   REMARKS
GRAND CANYON   CLOUDY    60  55  83 CALM      30.27S
WILLIAMS       PTCLDY    57  48  72 SE7       30.34S
PRESCOTT       PTCLDY    65  52  62 S5        30.15S
FLAGSTAFF      PTCLDY    51  48  89 CALM      30.32S
PAYSON         CLEAR     73  45  35 VRB3      30.19R
PAGE           CLOUDY    84  48  28 S6        30.06S
$$

AZZ009>014-017-251100-
NORTHEAST ARIZONA

CITY           SKY/WX    TMP DP  RH WIND       PRES   REMARKS
WINSLOW        NOT AVBL
SAINT JOHNS    CLEAR     67  50  54 SW3       30.20F
WINDOW ROCK    CLOUDY    62  47  57 CALM      30.31F
$$

AZZ023-251100-
GREATER PHOENIX AREA

CITY           SKY/WX    TMP DP  RH WIND       PRES   REMARKS
PHOENIX        MOCLDY    94  60  32 CALM      29.84R
BUCKEYE          N/A     88  59  37 N5        29.85S
LUKE AFB       NOT AVBL
DEER VALLEY    CLEAR     90  61  37 W6        29.87R
SCOTTSDALE     CLEAR     91  62  37 CALM      29.89S
MESA-GATEWAY   CLEAR     90  57  33 S3        29.90R
$$

AZZ027-028-251100-
SOUTHWEST MARICOPA COUNTY AND PINAL COUNTY

CITY           SKY/WX    TMP DP  RH WIND       PRES   REMARKS
CASA GRANDE    CLEAR     90  63  40 S9        29.89F
$$

AZZ503-504-507>509-251100-
SOUTHEAST ARIZONA

CITY           SKY/WX    TMP DP  RH WIND       PRES   REMARKS
TUCSON         CLEAR     85  63  47 SW8       30.01S
DAVIS-MONTHAN  CLEAR     84  64  51 SW3       30.01R
NOGALES        CLOUDY    75  64  68 CALM      30.11S
SIERRA VISTA   CLEAR     75  63  64 SE6       30.16S
SAFFORD        CLEAR     80  42  25 CALM      29.98F
$$

AZZ020-021-025-026-031-251100-
SOUTHWEST ARIZONA

CITY           SKY/WX    TMP DP  RH WIND       PRES   REMARKS
YUMA           CLEAR     92  69  47 SE17      29.74R
$$

CAZ031-033-041-043-047-048-061-251100-
SOUTHERN CALIFORNIA

CITY           SKY/WX    TMP DP  RH WIND       PRES   REMARKS
DOWNTOWN L.A.  CLEAR     71  63  75 VRB3      29.85R
L.A. AIRPORT   PTCLDY    70  60  70 E5        29.86R
SAN DIEGO      CLOUDY    69  64  84 S9        29.88F
BURBANK        CLEAR     72  56  57 E7        29.86R
ONTARIO        PTCLDY    73  57  57 W8        29.87R
RIVERSIDE      CLEAR     74  58  57 W3        29.87R
PALM SPRINGS   CLEAR     93  48  21 N7        29.76R
EL CENTRO NAS  CLOUDY    90  74  59 E10       29.68S
IMPERIAL       MOCLDY    91  70  49 SE13      29.68S
BLYTHE         MOCLDY    96  57  27 S8        29.73S
$$

NVZ020-UTZ003-251100-
SOUTHERN NEVADA-UTAH

CITY           SKY/WX    TMP DP  RH WIND       PRES   REMARKS
LAS VEGAS      NOT AVBL
SALT LAKE CITY PTCLDY    67  43  41 N5        30.01R
$$

NMZ009-TXZ055-251100-
NEW MEXICO-WEST TEXAS

CITY           SKY/WX    TMP DP  RH WIND       PRES   REMARKS
ALBUQUERQUE    MOCLDY    75  40  28 SE8       30.19F
EL PASO        PTCLDY    78  52  40 CALM      30.09F
$$


........................KEY........................
SKY/WX - SKY CONDITION/WEATHER
TMP    - TEMPERATURE IN FAHRENHEIT
DP     - DEW POINT IN FAHRENHEIT
RH     - RELATIVE HUMIDITY IN PERCENT
WIND   - DIRECTION AND SPEED IN MILES PER HOUR (MPH)
VRB    - VARIABLE WIND DIRECTION
PRES   - MEAN SEA LEVEL PRESSURE IN INCHES OF MERCURY
         F - FALLING PRESSURE   R - RISING PRESSURE
         S - STEADY PRESSURE
VSB    - VISIBILITY IN MILES
HX     - HEAT INDEX IN FAHRENHEIT
WCI    - WIND CHILL INDEX IN FAHRENHEIT
TC     - TEMPERATURE IN CELSIUS WHICH IS ALSO KNOWN AS
         TEMPERATURE IN CENTIGRADE
AFB    - AIR FORCE BASE
         LUKE AFB IS LUKE AIR FORCE BASE
         DAVIS-MONTHAN IS DAVIS-MONTHAN AIR FORCE BASE
NAS    - NAVAL AIR STATION
         EL CENTRO NAS IS EL CENTRO NAVAL AIR STATION
N/A    - NOT AVAILABLE



USA.gov is the U.S. government's official web portal to all federal, state and local government web resources and services.